loading
|
Showing default

LUCH (OLYMP) 2, 55841

Orbit data source: Space-Track

LUCH (OLYMP) 2, 55841 is a payload satellite owned by FSB (CIS) in GEO that was launched on Sun, 12 Mar 2023 UTC via a PROTON-M/BRIZ-M launch vehicle from the Tyuratam Missile And Space Complex (TTMTR). Payloads include a variety of satellites, spacecraft, and rockets equipped with specific instruments for various scientific and technological missions. These include communications satellites like Starlink; space stations such as the ISS; scientific satellites like the Hubble; Earth observation satellites from companies like Planet Labs, Umbra, and HawkEye 360; GPS; miniature CubeSats for education and research; and military/defense satellites.

Next visibility unknown
Next conjunction unknown
Loading greatness...
LUCH (OLYMP) 2 details
Identifier
55841, 2023-031A
Orbit
GEO
Last TLE update19 hours ago
Origin
Flag of CISFSB (CIS)
ManufacturerResehetnev ISS
MissionOperational Defense Com/Sigint
Bus & MotorEKSPRESS-2000, Unknown motor
Mass1,930 kg wet, ~1,800 kg dry
Launch date (UTC)
2023-03-12 (2 years ago)
Launch vehicle
PROTON-M/BRIZ-M
Launch site
Tyuratam Missile And Space Complex (TTMTR)
Object type
Payload
Rocket body
Debris
Shape & HBRCyl + 2 Pan + 2 Dish, 16 m
Radar Cross Section40.926 m², Large (>1 m²)

Expand to show TLE details & history

TLE from 19 hours ago
0 LUCH (OLYMP) 2
1 55841U 23031A   24287.83539451 -.00000012  00000-0  00000-0 0  9997
2 55841   0.0212 256.0297 0001434 356.3555  70.3249  1.00272055  5816
Epoch: 2024-10-13T20:02Z
Definitive object data (Epoch: 2024-10-13T20:02:58.085Z)
Latitude0.03568°
Longitude-0.91627°
Altitude35,783.993 km
Speed3.075 km/s
True Right ascension21h 30m 47s
True Declination0° 02' 08"
Sunlit
Object was in daylight at TLE epoch
Predictive object data (real-time)
Latitude0.00283°
Longitude-82.63729°
Altitude35,780.055 km
Speed3.075 km/s
Apparent Right ascension16h 28m 54s
Apparent Declination-5° 19' 45"
Sunlit
Object is in daylight
Predictive observer data (real-time)
Local Sidereal Time09:07:09
Azimuth80.757° E
Elevation-19.04°
Doppler factor1
Orbital elements
Apogee35,793.636 km
Perigee35,781.543 km
Semi-major axis42,165.727 km
Eccentricity0.0001434
Inclination0.0212°
RAAN256.0297°
Arg. of periapsis356.3555°
True anomaly70.34037°
Mean anomaly70.3249°
Eccentric anomaly70.33264°
Mean motion0.25067 °/min
BSTARUnknown
Period1436.15 mins
Authenticating...
55841 neighbors
Authenticating...
No data available
No data available
Other satellites on launch #31 in the year 2023 (2023-03-12 UTC)

LUCH (OLYMP) 2 Visibility forecast

Observer location: 39.9160978°, -105.1181434

LUCH (OLYMP) 2 is not visible in the next 10 days
Span
Click to sort rows by Start time (UTC) header in descending order
Start Az.
Max El. time (UTC)
Max El. Az.
Max El.
End time (UTC)
End Az.